TA3ONK-13 Weather Reports


Display with metric or nautical units.
time (UTC)temp
F
wind
direction
speed
MPH
gust
MPH
rain 1hr
in
rain 24hr
in
rain mn
in
humidity
%
barometer
mb
20260906071503 87 0 0.0 0.0 0.00 0.00 0.00 39 1017.7
20260906070002 87 0 0.0 0.0 0.00 0.00 0.00 41 1017.7
20260906064503 86 0 0.0 0.0 0.00 0.00 0.00 42 1017.6
20260906063003 85 0 0.0 0.0 0.00 0.00 0.00 37 1017.5
20260906061503 84 0 0.0 0.0 0.00 0.00 0.00 37 1017.4
20260906060004 83 0 0.0 0.0 0.00 0.00 0.00 34 1017.2
20260906054503 83 0 0.0 0.0 0.00 0.00 0.00 34 1017.1
20260906053002 82 0 0.0 0.0 0.00 0.00 0.00 35 1017.0
20260906051502 81 0 0.0 0.0 0.00 0.00 0.00 35 1017.0
20260906050002 80 0 0.0 0.0 0.00 0.00 0.00 35 1016.9
20260906044503 80 0 0.0 0.0 0.00 0.00 0.00 35 1016.9
20260906043004 79 0 0.0 0.0 0.00 0.00 0.00 36 1016.7
20260906041503 79 0 0.0 0.0 0.00 0.00 0.00 36 1016.5
20260906040003 79 0 0.0 0.0 0.00 0.00 0.00 36 1016.6
20260906034503 80 0 0.0 0.0 0.00 0.00 0.00 36 1016.5
20260906033003 79 0 0.0 0.0 0.00 0.00 0.00 36 1016.5
20260906031505 79 0 0.0 0.0 0.00 0.00 0.00 36 1016.4
20260906030003 80 0 0.0 0.0 0.00 0.00 0.00 36 1016.3
20260906024502 79 0 0.0 0.0 0.00 0.00 0.00 37 1016.2
20260906023003 80 0 0.0 0.0 0.00 0.00 0.00 36 1016.2
20260906021503 80 0 0.0 0.0 0.00 0.00 0.00 37 1016.1
20260906020004 80 0 0.0 0.0 0.00 0.00 0.00 37 1016.2
20260906014502 80 0 0.0 0.0 0.00 0.00 0.00 37 1016.1
20260906013003 81 0 0.0 0.0 0.00 0.00 0.00 36 1016.1
20260906011502 81 0 0.0 0.0 0.00 0.00 0.00 35 1016.4
20260906010003 81 0 0.0 0.0 0.00 0.00 0.00 35 1016.5
20260906004503 81 0 0.0 0.0 0.00 0.00 0.00 35 1016.3
20260906003003 81 0 0.0 0.0 0.00 0.00 0.00 36 1016.1
20260906001502 81 0 0.0 0.0 0.00 0.00 0.00 36 1016.2
20260906000005 81 0 0.0 0.0 0.00 0.00 0.00 37 1016.0
20260905234503 82 0 0.0 0.0 0.00 0.00 0.00 36 1016.0
20260905233002 82 0 0.0 0.0 0.00 0.00 0.00 36 1016.2
20260905231503 82 0 0.0 0.0 0.00 0.00 0.00 36 1016.3
20260905230002 82 0 0.0 0.0 0.00 0.00 0.00 38 1016.2
20260905224507 82 0 0.0 0.0 0.00 0.00 0.00 37 1016.4
20260905223002 83 0 0.0 0.0 0.00 0.00 0.00 37 1016.4
20260905221503 83 0 0.0 0.0 0.00 0.00 0.00 38 1016.5
20260905220002 83 0 0.0 0.0 0.00 0.00 0.00 40 1016.6
20260905214502 84 0 0.0 0.0 0.00 0.00 0.00 40 1016.6
20260905213003 84 0 0.0 0.0 0.00 0.00 0.00 41 1016.5
20260905211503 85 0 0.0 0.0 0.00 0.00 0.00 43 1016.6
20260905210003 85 0 0.0 0.0 0.00 0.00 0.00 44 1016.7
20260905204503 84 0 0.0 0.0 0.00 0.00 0.00 45 1016.7
20260905203004 85 0 0.0 0.0 0.00 0.00 0.00 45 1016.7
20260905201502 86 0 0.0 0.0 0.00 0.00 0.00 43 1016.8
20260905200004 87 0 0.0 0.0 0.00 0.00 0.00 41 1016.8
20260905194503 87 0 0.0 0.0 0.00 0.00 0.00 43 1016.8
20260905193003 87 0 0.0 0.0 0.00 0.00 0.00 43 1016.7
20260905191503 88 0 0.0 0.0 0.00 0.00 0.00 43 1016.8
20260905190005 88 0 0.0 0.0 0.00 0.00 0.00 43 1016.7
20260905184502 88 0 0.0 0.0 0.00 0.00 0.00 40 1016.7
20260905183002 89 0 0.0 0.0 0.00 0.00 0.00 40 1016.7
20260905181502 89 0 0.0 0.0 0.00 0.00 0.00 39 1016.6
20260905180004 89 0 0.0 0.0 0.00 0.00 0.00 39 1016.5
20260905174502 90 0 0.0 0.0 0.00 0.00 0.00 38 1016.3
20260905173006 91 0 0.0 0.0 0.00 0.00 0.00 37 1016.0
20260905171503 91 0 0.0 0.0 0.00 0.00 0.00 39 1015.8
20260905170004 92 0 0.0 0.0 0.00 0.00 0.00 38 1015.7
20260905164503 92 0 0.0 0.0 0.00 0.00 0.00 37 1015.6
20260905163003 93 0 0.0 0.0 0.00 0.00 0.00 33 1015.5
20260905161503 93 0 0.0 0.0 0.00 0.00 0.00 32 1015.4
20260905160004 93 0 0.0 0.0 0.00 0.00 0.00 33 1015.4
20260905154503 95 0 0.0 0.0 0.00 0.00 0.00 30 1015.4
20260905153004 96 0 0.0 0.0 0.00 0.00 0.00 27 1015.4
20260905151502 97 0 0.0 0.0 0.00 0.00 0.00 25 1015.5
20260905150005 98 0 0.0 0.0 0.00 0.00 0.00 23 1015.5
20260905144502 99 0 0.0 0.0 0.00 0.00 0.00 22 1015.6
20260905143003 99 0 0.0 0.0 0.00 0.00 0.00 22 1015.7
20260905141503 101 0 0.0 0.0 0.00 0.00 0.00 22 1015.7
20260905140003 101 0 0.0 0.0 0.00 0.00 0.00 22 1015.8
20260905134503 101 0 0.0 0.0 0.00 0.00 0.00 21 1015.9
20260905133004 102 0 0.0 0.0 0.00 0.00 0.00 21 1016.0
20260905131502 101 0 0.0 0.0 0.00 0.00 0.00 21 1016.0
20260905130004 101 0 0.0 0.0 0.00 0.00 0.00 22 1016.1
20260905124503 99 0 0.0 0.0 0.00 0.00 0.00 23 1016.1
20260905123004 97 0 0.0 0.0 0.00 0.00 0.00 24 1016.3
20260905121502 97 0 0.0 0.0 0.00 0.00 0.00 24 1016.3
20260905120002 97 0 0.0 0.0 0.00 0.00 0.00 24 1016.5
20260905114503 96 0 0.0 0.0 0.00 0.00 0.00 23 1016.6
20260905113002 97 0 0.0 0.0 0.00 0.00 0.00 26 1016.7
20260905111503 95 0 0.0 0.0 0.00 0.00 0.00 25 1016.9
20260905110004 95 0 0.0 0.0 0.00 0.00 0.00 25 1017.0
20260905104503 94 0 0.0 0.0 0.00 0.00 0.00 26 1016.9
20260905103003 94 0 0.0 0.0 0.00 0.00 0.00 28 1017.0
20260905101503 92 0 0.0 0.0 0.00 0.00 0.00 30 1017.1
20260905100002 93 0 0.0 0.0 0.00 0.00 0.00 28 1017.1
20260905094503 94 0 0.0 0.0 0.00 0.00 0.00 28 1017.2
20260905093002 97 0 0.0 0.0 0.00 0.00 0.00 30 1017.3
20260905091502 108 0 0.0 0.0 0.00 0.00 0.00 24 1017.1
20260905090003 108 0 0.0 0.0 0.00 0.00 0.00 22 1016.8
20260905084503 110 0 0.0 0.0 0.00 0.00 0.00 22 1016.3
20260905083002 110 0 0.0 0.0 0.00 0.00 0.00 23 1017.7
20260905081504 110 0 0.0 0.0 0.00 0.00 0.00 24 1017.3
20260905080025 111 0 0.0 0.0 0.00 0.00 0.00 27 1018.1
20260905074502 97 0 0.0 0.0 0.00 0.00 0.00 36 1018.0
20260905073004 86 0 0.0 0.0 0.00 0.00 0.00 49 1018.1